Temp
96 97 98 97 97 98 98 98 100 100 98 101 102 101 101 100 98 99 99 96 95 93 91 89 88 89 91 88 87 87 86 85 86 86 85 86 88 87 88 86 86 87
96 96 96 99 98 96 96 99 101 101 99 97 100 101 99 98 99 98 97 95 94 93 90 90 90 89 89 89 87 86 85 85 86 89 85 85 87 87 87 86 85 85
98 97 98 98 100 98 98 98 98 99 100 101 101 99 102 100 99 96 96 95 95 94 91 90 89 88 89 87 85 86 86 84 85 86 85 85 85 85 86 87 86 84
98 99 100 101 99 99 101 99 99 98 99 101 100 103 100 102 99 97 94 92 93 92 92 91 90 90 89 87 86 85 84 84 85 84 83 84 85 87 86 86 85 83
101 99 100 100 98 98 99 100 100 100 100 100 102 100 98 96 97 98 95 94 92 92 91 89 90 89 87 86 85 84 85 86 83 82 83 82 84 84 85 86 84 82
100 98 97 97 97 97 99 101 101 102 101 101 100 101 100 98 98 98 96 95 95 95 93 92 91 90 89 86 86 85 88 87 84 82 82 82 83 84 84 85 84 83
102 100 98 97 96 97 99 101 101 102 102 102 101 100 99 98 97 95 94 94 95 93 93 90 88 88 89 86 83 83 83 81 81 81 81 82 81 82 84 82 81 80
99 99 96 94 96 99 99 101 102 101 101 101 101 99 99 98 96 97 95 93 94 93 92 91 86 85 88 86 84 82 82 82 81 80 80 80 81 81 81 83 83 81
96 94 94 94 97 99 100 101 102 102 101 100 99 100 98 98 97 97 94 92 92 91 90 89 87 88 87 85 83 81 81 81 81 81 80 81 81 81 82 83 83 82
92 93 93 95 97 99 98 100 101 101 100 98 99 100 99 98 97 97 92 90 91 89 89 87 86 87 87 84 82 81 81 80 82 83 84 83 82 83 84 83 82 81
92 93 93 94 98 98 98 100 99 100 97 96 95 98 99 97 95 94 91 89 92 90 89 87 86 85 83 82 82 82 81 83 82 82 82 81 81 81 81 81 81 81
92 91 92 92 94 95 98 99 96 96 96 94 93 93 94 95 93 94 94 92 92 91 91 86 84 83 82 82 82 82 83 82 81 81 81 80 81 82 82 82 82 81
92 90 91 91 91 94 96 95 94 94 93 92 92 92 91 92 92 93 93 93 90 90 90 85 84 83 82 82 82 82 81 81 80 80 80 81 81 81 82 83 83 84
91 92 91 91 91 92 93 94 92 92 91 90 90 89 90 90 90 92 92 91 89 88 86 84 83 82 82 81 81 81 81 80 80 80 80 80 80 81 82 82 83 83
90 92 91 90 90 90 91 91 91 90 90 89 88 89 92 92 90 92 91 89 87 86 84 84 83 83 83 83 81 80 81 80 80 80 80 79 79 81 81 81 83 84
89 90 90 90 89 89 89 89 89 90 90 88 87 87 89 88 87 89 87 86 84 84 84 84 84 85 82 80 81 81 81 82 81 80 79 79 78 78 79 80 80 83
87 88 88 88 88 89 88 88 88 89 88 87 87 86 86 85 86 85 85 85 84 83 84 85 86 86 77 75 76 78 81 81 80 79 79 79 78 78 78 79 81 81
87 87 87 87 88 87 87 87 88 87 87 87 87 86 85 85 84 83 83 83 83 83 84 87 87 76 71 72 74 75 79 81 82 81 80 79 79 79 80 80 79 80
86 86 86 86 86 87 87 87 86 86 86 87 86 87 86 84 84 84 83 84 83 82 83 85 86 71 70 71 72 72 75 80 84 82 79 79 79 79 79 78 79 79
86 86 85 85 86 86 87 87 86 86 87 87 86 86 85 85 86 84 83 82 82 83 82 85 83 71 69 70 70 71 72 76 82 80 80 79 78 78 78 78 78 79
86 86 86 86 86 86 86 86 86 86 86 86 86 86 85 84 84 83 83 82 82 83 84 85 82 69 68 68 68 69 70 76 81 80 79 78 77 77 78 79 80 81
86 86 86 86 85 85 84 84 85 85 84 85 85 86 86 86 84 84 82 82 82 83 84 84 81 66 67 67 66 67 70 79 81 78 78 77 76 77 78 79 80 81
86 86 86 85 84 84 84 85 84 84 84 85 85 85 84 84 84 83 83 82 81 82 83 83 80 68 65 65 65 66 72 79 79 78 77 77 77 78 79 80 80 80
85 85 84 84 84 84 84 85 86 86 86 86 85 85 84 84 84 83 83 83 81 82 83 82 79 70 63 63 63 65 74 79 78 77 77 77 76 78 79 79 78 75
85 85 85 85 85 85 86 86 86 86 87 86 86 86 85 84 85 83 82 82 82 82 80 81 79 71 61 62 63 64 73 79 78 78 76 76 76 76 78 80 78 77
84 84 84 84 83 82 81 78 80 86 86 85 85 87 86 85 84 84 82 82 82 82 81 82 79 75 68 60 62 63 68 78 78 78 76 75 77 76 77 78 78 78
MSLP
1014.69 1014.73 1015.01 1015.29 1015.41 1015.37 1015.25 1015.45 1015.29 1015.29 1015.45 1015.29 1015.29 1015.13 1015.29 1015.25 1015.37 1015.29 1015.33 1015.49 1015.77 1015.97 1016.29 1016.53 1016.65 1016.73 1016.81 1017.01 1017.09 1017.09 1017.29 1017.41 1017.41 1017.49 1017.57 1017.33 1017.25 1017.25 1017.37 1017.41 1017.25 1017.01
1014.57 1014.57 1014.65 1014.69 1014.93 1015.17 1015.25 1015.01 1014.93 1014.97 1015.13 1015.49 1015.29 1015.13 1015.17 1015.33 1015.33 1015.25 1015.45 1015.73 1015.81 1016.09 1016.33 1016.49 1016.57 1016.73 1016.85 1017.01 1017.21 1017.41 1017.49 1017.53 1017.61 1017.37 1017.73 1017.69 1017.41 1017.33 1017.41 1017.45 1017.41 1017.21
1014.25 1014.45 1014.61 1014.81 1014.73 1014.97 1015.09 1014.97 1014.89 1014.93 1014.97 1014.89 1014.85 1015.05 1014.93 1014.89 1015.17 1015.37 1015.45 1015.61 1015.81 1016.13 1016.41 1016.49 1016.73 1016.81 1016.93 1017.21 1017.37 1017.41 1017.61 1017.81 1017.77 1017.69 1017.77 1017.85 1017.69 1017.61 1017.45 1017.25 1017.41 1017.57
1013.97 1013.97 1014.05 1014.21 1014.29 1014.49 1014.45 1014.77 1014.89 1014.97 1014.77 1014.93 1015.09 1014.61 1014.85 1014.81 1015.13 1015.41 1015.65 1015.85 1015.93 1016.21 1016.29 1016.41 1016.61 1016.73 1016.97 1017.21 1017.37 1017.57 1017.77 1017.73 1017.85 1017.93 1018.05 1017.89 1017.77 1017.53 1017.53 1017.45 1017.57 1017.73
1013.45 1013.69 1013.73 1013.81 1014.01 1014.33 1014.41 1014.49 1014.65 1014.65 1014.77 1014.73 1014.57 1014.69 1015.05 1015.25 1015.29 1015.29 1015.61 1015.85 1016.01 1016.21 1016.37 1016.57 1016.61 1016.85 1017.05 1017.29 1017.45 1017.77 1017.77 1017.81 1018.09 1018.13 1018.21 1018.25 1017.93 1017.89 1017.73 1017.65 1017.85 1018.01
1013.09 1013.29 1013.49 1013.81 1014.09 1014.33 1014.45 1014.45 1014.37 1014.37 1014.53 1014.65 1014.77 1014.53 1014.77 1015.09 1015.17 1015.25 1015.45 1015.77 1015.85 1016.01 1016.29 1016.37 1016.61 1016.81 1016.93 1017.33 1017.41 1017.57 1017.45 1017.65 1018.09 1018.29 1018.41 1018.41 1018.29 1018.09 1017.97 1017.93 1018.05 1018.17
1012.89 1013.21 1013.57 1013.73 1014.05 1014.21 1014.41 1014.21 1014.09 1014.05 1014.09 1014.21 1014.21 1014.61 1014.65 1015.05 1015.21 1015.37 1015.57 1015.69 1015.81 1016.01 1016.25 1016.57 1016.85 1016.93 1016.97 1017.33 1017.69 1017.85 1017.89 1018.17 1018.37 1018.45 1018.57 1018.49 1018.49 1018.45 1018.25 1018.33 1018.37 1018.45
1012.73 1012.85 1013.33 1013.65 1013.97 1013.97 1014.21 1014.05 1013.97 1013.97 1013.89 1014.05 1014.41 1014.53 1014.61 1014.93 1015.13 1015.21 1015.41 1015.69 1015.93 1016.13 1016.29 1016.61 1016.97 1017.13 1017.09 1017.33 1017.69 1018.05 1018.21 1018.25 1018.49 1018.65 1018.73 1018.77 1018.57 1018.69 1018.53 1018.33 1018.33 1018.45
1012.81 1013.13 1013.37 1013.65 1013.77 1013.73 1013.85 1013.85 1013.77 1013.77 1013.77 1014.17 1014.41 1014.45 1014.57 1014.73 1014.97 1015.09 1015.45 1015.73 1015.93 1016.17 1016.41 1016.69 1016.93 1017.01 1017.09 1017.41 1017.81 1018.13 1018.29 1018.41 1018.53 1018.61 1018.77 1018.77 1018.77 1018.73 1018.53 1018.29 1018.37 1018.37
1013.09 1013.17 1013.41 1013.49 1013.61 1013.49 1013.69 1013.61 1013.53 1013.61 1013.69 1014.13 1014.29 1014.25 1014.57 1014.61 1014.77 1014.97 1015.49 1015.89 1016.09 1016.33 1016.45 1016.69 1016.93 1017.01 1017.21 1017.57 1017.93 1018.13 1018.37 1018.53 1018.53 1018.45 1018.41 1018.53 1018.65 1018.57 1018.49 1018.53 1018.61 1018.65
1013.05 1013.17 1013.37 1013.41 1013.25 1013.25 1013.49 1013.41 1013.53 1013.53 1013.73 1014.25 1014.45 1014.49 1014.41 1014.61 1014.93 1015.01 1015.57 1015.89 1016.01 1016.25 1016.45 1016.73 1016.97 1017.17 1017.53 1017.77 1017.93 1018.05 1018.29 1018.37 1018.49 1018.53 1018.69 1018.81 1018.77 1018.77 1018.69 1018.69 1018.77 1018.77
1012.85 1013.05 1013.13 1013.25 1013.21 1013.25 1013.29 1013.29 1013.45 1013.69 1013.97 1014.29 1014.49 1014.85 1014.77 1014.81 1015.05 1015.13 1015.25 1015.65 1015.77 1015.97 1016.21 1016.73 1017.05 1017.33 1017.65 1017.85 1018.01 1018.09 1018.17 1018.33 1018.53 1018.65 1018.81 1018.89 1018.85 1018.73 1018.73 1018.65 1018.69 1018.77
1012.65 1012.85 1012.89 1013.05 1013.17 1013.17 1013.05 1013.17 1013.45 1013.77 1014.09 1014.41 1014.41 1014.69 1014.97 1015.09 1015.09 1015.17 1015.17 1015.33 1015.73 1015.89 1016.17 1016.73 1017.13 1017.37 1017.69 1017.89 1018.01 1018.17 1018.33 1018.53 1018.73 1018.81 1018.93 1018.93 1018.93 1018.85 1018.77 1018.65 1018.61 1018.49
1012.41 1012.45 1012.65 1012.77 1012.89 1012.97 1013.05 1013.17 1013.49 1013.73 1014.01 1014.17 1014.33 1014.73 1014.93 1015.01 1015.21 1015.21 1015.25 1015.37 1015.77 1016.01 1016.29 1016.73 1017.13 1017.45 1017.69 1017.89 1018.05 1018.25 1018.45 1018.65 1018.73 1018.89 1019.01 1019.05 1019.05 1018.97 1018.89 1018.89 1018.77 1018.65
1012.25 1012.21 1012.37 1012.61 1012.81 1013.01 1013.17 1013.33 1013.53 1013.69 1013.85 1014.09 1014.37 1014.61 1014.61 1014.73 1014.89 1015.01 1015.33 1015.69 1015.93 1016.17 1016.53 1016.73 1017.13 1017.41 1017.49 1017.77 1018.09 1018.33 1018.37 1018.61 1018.73 1018.85 1018.97 1019.13 1019.17 1019.05 1019.01 1018.97 1018.73 1018.57
1012.25 1012.25 1012.37 1012.53 1012.81 1013.05 1013.17 1013.29 1013.45 1013.65 1013.85 1014.17 1014.41 1014.49 1014.57 1014.73 1015.01 1015.09 1015.45 1015.89 1016.25 1016.41 1016.57 1016.81 1017.09 1017.13 1017.45 1017.73 1017.89 1018.09 1018.33 1018.45 1018.65 1018.77 1018.89 1019.05 1019.17 1019.21 1019.21 1019.09 1019.05 1018.69
1012.29 1012.41 1012.41 1012.69 1012.77 1012.89 1013.01 1013.21 1013.45 1013.57 1013.89 1014.17 1014.37 1014.53 1014.73 1014.93 1015.13 1015.45 1015.69 1015.93 1016.21 1016.45 1016.73 1016.81 1016.89 1017.05 1017.69 1017.93 1018.09 1018.17 1018.21 1018.41 1018.65 1018.77 1018.81 1018.97 1019.09 1019.21 1019.25 1019.17 1019.01 1019.05
1012.21 1012.33 1012.53 1012.61 1012.65 1012.89 1012.97 1013.09 1013.25 1013.57 1013.89 1014.13 1014.33 1014.61 1014.77 1014.89 1015.29 1015.53 1015.69 1015.93 1016.17 1016.45 1016.65 1016.61 1016.69 1017.33 1017.77 1018.05 1018.21 1018.33 1018.29 1018.33 1018.45 1018.57 1018.77 1018.89 1018.97 1019.09 1019.01 1018.97 1019.13 1019.13
1012.01 1012.29 1012.49 1012.61 1012.65 1012.69 1012.81 1012.97 1013.25 1013.53 1013.81 1014.09 1014.33 1014.29 1014.49 1014.97 1015.21 1015.41 1015.73 1015.89 1016.21 1016.57 1016.69 1016.57 1016.73 1017.53 1017.77 1018.01 1018.21 1018.33 1018.45 1018.29 1018.17 1018.41 1018.77 1018.85 1018.93 1019.01 1019.05 1019.17 1019.13 1019.13
1011.85 1012.09 1012.37 1012.45 1012.45 1012.53 1012.65 1012.93 1013.21 1013.49 1013.57 1013.65 1013.93 1014.17 1014.49 1014.77 1014.93 1015.33 1015.61 1015.93 1016.17 1016.41 1016.57 1016.49 1016.77 1017.49 1017.69 1017.93 1018.17 1018.41 1018.53 1018.49 1018.25 1018.57 1018.69 1018.81 1019.01 1019.09 1019.13 1019.17 1019.09 1019.13
1011.69 1011.89 1012.13 1012.25 1012.25 1012.37 1012.57 1012.85 1013.09 1013.25 1013.41 1013.57 1013.73 1014.05 1014.37 1014.69 1014.93 1015.29 1015.53 1015.77 1016.01 1016.17 1016.37 1016.45 1016.73 1017.37 1017.61 1017.89 1018.13 1018.45 1018.61 1018.57 1018.33 1018.53 1018.69 1018.93 1019.05 1019.09 1019.05 1019.01 1018.85 1018.69
1011.49 1011.69 1011.85 1011.97 1012.17 1012.33 1012.57 1012.81 1012.97 1013.13 1013.41 1013.41 1013.57 1013.73 1013.89 1014.17 1014.61 1014.85 1015.37 1015.69 1015.81 1015.97 1016.21 1016.37 1016.69 1017.33 1017.53 1017.85 1018.13 1018.41 1018.61 1018.45 1018.33 1018.69 1018.85 1019.01 1019.13 1019.09 1019.01 1018.89 1018.73 1018.65
1011.45 1011.65 1011.81 1011.97 1012.09 1012.33 1012.45 1012.53 1012.77 1013.01 1013.13 1013.13 1013.57 1013.69 1014.01 1014.33 1014.57 1014.81 1015.05 1015.37 1015.69 1015.85 1016.05 1016.17 1016.73 1017.29 1017.49 1017.77 1018.09 1018.29 1018.49 1018.29 1018.45 1018.69 1018.85 1018.97 1019.09 1019.01 1018.89 1018.81 1018.77 1018.73
1011.61 1011.81 1012.05 1012.13 1012.21 1012.41 1012.45 1012.37 1012.33 1012.41 1012.77 1012.89 1013.37 1013.69 1014.01 1014.13 1014.33 1014.69 1014.89 1015.09 1015.45 1015.65 1015.69 1016.05 1016.53 1017.13 1017.45 1017.73 1017.97 1018.17 1018.17 1018.17 1018.49 1018.65 1018.85 1018.89 1019.01 1018.89 1018.77 1018.81 1018.89 1019.01
1011.57 1011.69 1011.89 1012.09 1012.33 1012.41 1012.49 1012.57 1012.53 1012.61 1012.53 1012.77 1013.09 1013.33 1013.69 1013.85 1014.09 1014.53 1014.81 1014.97 1015.13 1015.29 1015.49 1015.81 1016.29 1017.09 1017.53 1017.65 1017.85 1018.05 1018.09 1018.05 1018.33 1018.45 1018.77 1018.89 1018.97 1019.01 1018.77 1018.77 1019.13 1019.17
1011.77 1011.93 1011.97 1012.21 1012.53 1012.73 1012.93 1013.41 1013.37 1012.81 1012.81 1013.05 1013.13 1013.17 1013.49 1013.69 1013.97 1014.21 1014.73 1014.85 1014.97 1015.21 1015.57 1015.65 1016.21 1016.89 1017.45 1017.65 1017.81 1017.97 1018.05 1017.97 1018.17 1018.37 1018.73 1018.85 1018.81 1018.85 1018.97 1018.93 1018.97 1019.17
Wind_Speed
9 8 8 7 7 7 6 6 6 7 4 3 4 0 1 2 2 2 3 3 3 4 5 5 5 4 4 4 3 4 3 4 3 3 2 2 4 4 5 6 6 6
10 9 6 7 6 6 6 6 6 5 4 3 4 2 1 1 0 2 2 2 3 5 5 5 5 4 4 4 3 3 3 3 3 3 2 2 3 4 5 6 6 5
10 10 10 9 7 8 9 8 6 5 4 5 1 2 2 3 1 1 1 1 3 5 5 5 5 4 4 4 4 3 4 3 3 4 2 3 4 3 5 4 5 6
11 11 10 10 8 7 9 8 8 6 6 5 6 4 2 1 1 2 3 3 3 4 5 5 5 5 5 5 4 4 4 3 4 3 2 2 2 3 4 4 5 5
12 12 10 9 7 7 7 8 9 8 8 6 5 3 3 2 3 2 3 3 4 5 5 5 5 6 5 5 4 4 4 5 4 2 2 2 3 3 3 4 5 6
11 10 9 8 8 7 8 9 9 8 8 7 7 5 4 3 3 2 2 3 4 4 5 5 5 6 5 5 4 3 3 4 5 3 3 3 4 3 4 5 5 6
11 11 11 9 9 9 9 9 9 9 8 7 6 5 4 4 3 2 3 3 3 3 4 4 4 4 5 5 4 4 4 5 5 3 3 4 3 4 4 4 5 5
10 10 10 9 11 11 10 10 10 8 7 6 6 5 5 4 3 3 3 4 4 4 4 5 5 5 5 5 5 5 6 4 4 4 4 4 3 4 4 4 5 5
8 8 9 11 12 10 10 10 10 9 7 7 7 6 6 5 4 4 4 4 4 4 5 5 5 5 5 5 5 5 5 5 4 4 4 4 4 3 3 3 4 5
9 9 10 11 11 10 10 10 10 9 7 7 6 6 6 5 4 4 5 5 5 6 5 5 6 5 5 6 6 5 5 5 5 4 3 3 3 3 3 4 4 5
11 10 11 11 12 10 10 10 9 8 6 6 6 6 5 5 5 5 6 6 6 7 6 6 6 6 6 6 5 5 5 5 4 3 4 3 3 3 2 3 3 4
11 10 11 11 11 10 11 10 8 8 6 6 6 6 5 5 5 5 5 7 6 6 6 6 6 6 6 6 6 6 5 5 4 3 4 3 3 2 2 2 3 3
11 10 10 10 10 10 10 8 8 8 8 7 6 7 7 6 5 6 5 6 6 6 6 7 6 6 6 6 6 6 5 5 5 4 4 3 3 2 1 1 1 2
10 10 10 9 9 9 9 8 8 9 8 7 7 7 7 7 6 6 5 6 6 6 6 7 7 6 6 6 6 6 5 5 5 4 4 3 3 2 1 1 1 1
9 8 8 9 9 9 9 9 9 8 8 7 7 7 6 7 6 6 6 6 6 6 7 6 6 6 5 6 6 6 5 5 5 5 4 4 3 3 2 2 1 1
8 8 8 9 9 9 9 8 8 8 8 7 7 7 6 5 6 5 6 6 7 7 7 6 5 4 6 9 7 6 6 5 5 5 4 4 4 3 3 2 1 2
8 8 7 8 9 9 9 9 9 8 7 7 7 7 7 6 6 6 6 6 7 7 7 6 5 5 11 8 6 7 5 5 5 5 5 4 4 4 3 3 2 2
8 8 8 8 8 8 9 9 9 8 8 8 7 8 6 6 6 6 6 6 6 6 6 6 5 12 12 10 8 6 5 5 5 5 4 4 4 4 3 3 2 3
8 8 8 8 8 8 8 8 9 9 8 8 8 8 7 7 7 7 7 6 6 7 6 6 6 13 13 12 9 7 5 6 4 4 4 4 4 3 2 1 2 3
8 8 8 8 8 8 9 9 9 9 9 8 7 7 7 7 7 8 7 7 7 7 6 6 7 13 14 12 11 8 7 7 3 4 3 3 3 2 3 4 4 5
8 8 9 9 9 9 9 9 9 9 9 8 8 8 8 8 8 8 7 8 8 8 7 7 7 15 14 13 11 10 8 8 3 4 3 3 3 3 3 5 5 5
8 8 8 8 9 9 9 9 9 9 9 8 7 7 6 6 6 7 8 9 9 9 8 7 9 16 14 13 12 10 10 6 4 4 3 4 4 5 5 4 4 4
6 7 7 8 8 9 10 10 10 9 8 7 8 7 7 7 7 7 8 9 10 9 9 8 9 13 14 14 13 12 10 5 5 4 4 5 5 6 5 5 5 6
4 4 4 5 6 7 8 8 9 8 9 8 8 8 8 8 7 7 7 8 10 10 10 9 9 12 15 14 14 14 10 6 5 5 5 5 6 6 5 5 4 5
2 2 2 4 5 4 4 4 6 7 7 6 6 6 6 7 7 7 8 8 9 10 11 10 9 11 14 15 15 14 10 5 5 5 6 6 6 6 6 5 5 5
5 4 3 2 2 1 2 3 6 4 4 5 6 5 6 7 8 7 9 8 9 9 9 9 9 11 12 15 14 14 10 6 6 6 7 8 7 7 7 6 7 6
Wind_Direction
213 211 206 206 209 220 219 202 213 202 211 237 238 352 21 41 358 338 30 71 78 107 110 110 116 119 108 97 81 72 79 83 92 100 54 29 59 52 54 50 38 26
215 216 215 213 202 199 219 229 213 227 183 219 263 262 146 324 271 345 70 104 133 110 117 126 122 110 109 100 103 98 107 112 104 92 96 64 61 58 64 62 44 39
212 207 209 216 208 195 208 209 230 221 225 225 180 274 258 184 191 87 116 130 112 119 122 118 118 115 105 110 119 121 99 97 92 83 66 62 47 42 50 49 60 33
208 213 211 212 216 219 202 205 205 213 230 206 223 204 204 356 335 160 129 152 135 128 134 128 122 123 117 114 114 107 116 110 79 79 75 61 38 55 62 58 51 43
208 207 213 213 207 209 229 214 209 208 214 222 227 186 207 211 241 178 165 147 144 150 140 144 137 122 127 121 124 125 133 120 116 118 95 83 77 60 51 54 51 43
205 207 206 206 204 212 215 218 215 216 212 208 217 215 200 195 236 217 163 168 166 159 150 147 142 132 128 127 129 130 129 115 112 112 103 86 70 49 41 46 46 46
202 196 198 194 195 203 224 224 220 220 211 217 208 213 192 209 220 188 185 179 166 155 153 131 129 126 120 123 126 123 98 100 117 115 103 91 82 77 69 60 53 46
209 189 192 187 197 206 215 223 218 219 218 212 219 195 210 210 208 203 181 163 171 162 145 136 129 132 139 130 133 128 127 131 126 127 118 109 104 89 74 60 51 49
197 187 185 193 204 208 213 214 216 218 214 215 217 200 198 218 197 208 159 170 169 149 153 147 150 146 135 134 127 136 133 131 136 136 137 139 120 110 98 73 58 48
185 189 192 198 207 209 211 214 213 212 208 216 221 210 203 200 208 181 158 163 170 160 162 150 150 147 135 131 137 138 136 142 150 161 136 105 103 94 68 62 46 39
189 192 196 206 211 205 210 210 214 216 197 200 213 228 218 191 187 168 163 173 183 174 164 157 148 138 133 137 139 139 146 152 141 141 123 123 119 98 85 70 61 43
192 196 201 203 211 206 208 207 203 212 188 187 195 220 219 209 186 194 180 185 180 177 162 145 139 139 140 142 143 148 149 145 147 146 134 140 150 135 99 63 63 63
193 196 198 197 198 204 206 205 194 187 188 189 189 198 201 213 200 199 184 180 169 171 156 142 140 141 142 145 146 147 147 149 153 152 151 152 142 152 149 99 46 53
197 195 194 193 191 198 201 193 181 183 181 180 180 191 200 204 201 193 179 168 164 157 139 137 139 143 147 147 151 152 155 159 164 162 159 153 147 161 118 101 97 76
197 195 193 190 190 189 190 184 180 178 175 174 178 189 204 202 196 192 177 163 155 149 140 142 148 152 157 156 155 160 162 168 169 168 167 161 168 166 146 184 211 147
193 194 189 188 189 187 184 181 178 178 175 173 176 186 193 187 178 182 171 163 159 151 148 148 154 162 145 150 155 161 171 168 173 170 172 168 176 177 172 174 189 336
185 190 189 191 190 188 182 179 177 175 173 175 177 179 177 169 172 169 171 170 166 159 156 161 164 144 138 134 140 162 171 170 172 174 175 177 186 197 177 186 153 170
182 185 192 194 193 190 183 179 176 175 175 177 179 176 172 167 173 174 172 168 164 160 165 167 157 123 136 134 144 162 185 177 182 181 180 180 189 201 191 191 157 180
181 185 190 194 195 192 186 181 179 175 177 180 183 181 173 176 178 174 173 168 162 161 166 168 142 137 143 148 152 168 191 215 180 174 177 188 182 200 174 187 174 153
182 186 190 192 192 190 188 185 182 181 182 181 176 175 179 182 181 174 168 165 162 165 163 175 140 148 150 154 159 165 179 234 169 179 185 168 172 178 180 171 159 157
183 188 192 191 191 188 184 183 183 184 182 178 180 181 181 181 176 175 169 165 163 166 168 175 146 150 153 157 159 164 170 221 172 185 169 158 168 164 167 159 169 164
190 191 191 188 185 181 180 182 183 184 180 179 181 181 178 170 168 172 166 166 167 170 173 179 143 154 155 157 157 159 175 208 175 180 167 163 159 160 160 160 163 152
196 193 191 190 189 188 187 182 179 178 181 180 182 179 172 172 171 171 169 169 169 174 175 172 148 161 157 156 156 161 182 201 168 174 168 168 156 161 161 158 159 157
191 203 213 211 206 207 198 189 183 180 184 181 188 180 178 174 168 166 168 172 173 176 179 170 159 159 159 157 160 171 191 183 169 176 169 158 155 162 160 163 138 40
122 146 221 238 246 251 250 228 198 187 182 176 189 186 175 166 170 168 168 173 178 180 173 173 158 155 162 161 166 176 194 179 181 173 169 159 160 162 160 157 147 158
55 43 39 25 18 128 165 220 258 240 191 180 180 188 180 174 175 173 171 175 175 177 170 179 157 159 167 167 171 177 202 189 182 178 170 164 168 163 159 158 159 155